{"data":{"norad_id":51746,"epoch":"2026-05-24T19:50:01.288320Z","epoch_age_seconds":89793,"freshness":"FRESH","line1":"1 51746U 22016AJ  26144.82640380 -.00000886  00000+0 -37559-4 0  9998","line2":"2 51746  53.2141 327.3400 0001358  95.0630 265.0518 15.08847531235199","mean_motion":15.08847531,"eccentricity":0.0001358,"inclination_deg":53.2141,"raan_deg":327.34,"arg_perigee_deg":95.063,"mean_anomaly_deg":265.0518,"bstar":-3.7559e-5,"rev_number":23519,"period_min":95.4370783273,"perigee_km":538.78092477485,"apogee_km":540.65981483649,"semimajor_km":6917.8573698057,"source":"CELESTRAK","updated_at":"2026-05-25T13:38:16.946185Z"}}